timestamp,wind_dir_avg,wind_spd_max_dir,wind_spd_avg,wind_spd_gust,battery_voltage,lat,long
2018-07-05 00:00:00+00:00,35.0,38.0,6.72,7.17,,47.59359,-54.27349
2018-07-05 00:10:00+00:00,58.0,55.0,5.27,5.66,,47.59359,-54.27349
2018-07-05 00:20:00+00:00,56.0,57.0,3.54,4.04,,47.59359,-54.27349
2018-07-05 00:30:00+00:00,67.0,68.0,4.81,5.18,,47.59359,-54.27349
2018-07-05 00:40:00+00:00,68.0,67.0,5.01,5.56,,47.59359,-54.27349
2018-07-05 00:50:00+00:00,67.0,70.0,3.41,4.51,,47.59359,-54.27349
2018-07-05 01:00:00+00:00,59.0,57.0,4.59,5.05,,47.59359,-54.27349
2018-07-05 01:10:00+00:00,51.0,50.0,5.46,5.91,,47.59359,-54.27349
2018-07-05 01:20:00+00:00,69.0,64.0,4.03,5.02,,47.59359,-54.27349
2018-07-05 01:30:00+00:00,58.0,56.0,5.11,5.45,,47.59359,-54.27349
2018-07-05 01:40:00+00:00,58.0,57.0,4.65,4.86,,47.59359,-54.27349
2018-07-05 01:50:00+00:00,64.0,56.0,3.98,4.58,,47.59359,-54.27349
2018-07-05 02:00:00+00:00,48.0,49.0,4.46,4.95,,47.59359,-54.27349
2018-07-05 02:10:00+00:00,60.0,59.0,3.86,4.34,,47.59359,-54.27349
2018-07-05 02:20:00+00:00,66.0,69.0,2.3,2.92,,47.59359,-54.27349
2018-07-05 02:30:00+00:00,54.0,52.0,2.81,3.17,,47.59359,-54.27349
2018-07-05 02:40:00+00:00,45.0,46.0,2.05,2.32,,47.59359,-54.27349
2018-07-05 02:50:00+00:00,57.0,57.0,2.49,2.79,,47.59359,-54.27349
2018-07-05 03:00:00+00:00,51.0,52.0,3.04,3.23,,47.59359,-54.27349
2018-07-05 03:10:00+00:00,57.0,57.0,3.52,3.95,,47.59359,-54.27349
2018-07-05 03:20:00+00:00,58.0,57.0,4.46,4.83,,47.59359,-54.27349
2018-07-05 03:30:00+00:00,64.0,49.0,3.29,4.18,,47.59359,-54.27349
2018-07-05 03:40:00+00:00,70.0,70.0,3.25,3.89,,47.59359,-54.27349
2018-07-05 03:50:00+00:00,71.0,71.0,3.5,3.95,,47.59359,-54.27349
2018-07-05 04:00:00+00:00,10.0,3.0,2.14,3.15,,47.59359,-54.27349
2018-07-05 04:10:00+00:00,48.0,47.0,3.95,4.36,,47.59359,-54.27349
2018-07-05 04:20:00+00:00,44.0,42.0,3.01,3.38,,47.59359,-54.27349
2018-07-05 04:30:00+00:00,52.0,54.0,3.71,3.9,,47.59359,-54.27349
2018-07-05 04:40:00+00:00,52.0,52.0,3.92,4.61,,47.59359,-54.27349
2018-07-05 04:50:00+00:00,62.0,59.0,3.02,3.46,,47.59359,-54.27349
2018-07-05 05:00:00+00:00,61.0,61.0,2.84,3.26,,47.59359,-54.27349
2018-07-05 05:10:00+00:00,28.0,34.0,1.02,1.33,,47.59359,-54.27349
2018-07-05 05:20:00+00:00,59.0,58.0,2.33,2.47,,47.59359,-54.27349
2018-07-05 05:30:00+00:00,61.0,58.0,2.43,2.67,,47.59359,-54.27349
2018-07-05 05:40:00+00:00,55.0,54.0,1.85,2.2,,47.59359,-54.27349
2018-07-05 05:50:00+00:00,65.0,67.0,2.13,2.42,,47.59359,-54.27349
2018-07-05 06:00:00+00:00,51.0,52.0,2.95,3.12,,47.59359,-54.27349
2018-07-05 06:10:00+00:00,52.0,54.0,1.79,2.09,,47.59359,-54.27349
2018-07-05 06:20:00+00:00,49.0,48.0,2.02,2.17,,47.59359,-54.27349
2018-07-05 06:30:00+00:00,66.0,67.0,2.61,3.14,,47.59359,-54.27349
2018-07-05 06:40:00+00:00,73.0,74.0,2.61,3.06,,47.59359,-54.27349
2018-07-05 06:50:00+00:00,84.0,84.0,4.26,4.62,,47.59359,-54.27349
2018-07-05 07:00:00+00:00,70.0,73.0,3.34,3.8,,47.59359,-54.27349
2018-07-05 07:10:00+00:00,76.0,75.0,3.69,4.16,,47.59359,-54.27349
2018-07-05 07:20:00+00:00,71.0,69.0,4.82,5.35,,47.59359,-54.27349
2018-07-05 07:30:00+00:00,54.0,57.0,3.31,3.62,,47.59359,-54.27349
2018-07-05 07:40:00+00:00,66.0,68.0,2.93,3.2,,47.59359,-54.27349
2018-07-05 07:50:00+00:00,52.0,52.0,3.75,3.99,,47.59359,-54.27349
2018-07-05 08:00:00+00:00,38.0,39.0,4.41,4.67,,47.59359,-54.27349
2018-07-05 08:10:00+00:00,42.0,43.0,5.42,5.95,,47.59359,-54.27349
2018-07-05 08:20:00+00:00,45.0,45.0,4.85,5.8,,47.59359,-54.27349
2018-07-05 08:30:00+00:00,50.0,51.0,4.32,4.53,,47.59359,-54.27349
2018-07-05 08:40:00+00:00,62.0,62.0,4.24,4.45,,47.59359,-54.27349
2018-07-05 08:50:00+00:00,70.0,69.0,4.13,4.54,,47.59359,-54.27349
2018-07-05 09:00:00+00:00,56.0,58.0,4.62,5.12,,47.59359,-54.27349
2018-07-05 09:10:00+00:00,55.0,54.0,4.04,4.38,,47.59359,-54.27349
2018-07-05 09:20:00+00:00,61.0,64.0,3.71,4.19,,47.59359,-54.27349
2018-07-05 09:30:00+00:00,68.0,66.0,3.39,3.74,,47.59359,-54.27349
2018-07-05 09:40:00+00:00,72.0,70.0,3.9,4.38,,47.59359,-54.27349
2018-07-05 09:50:00+00:00,76.0,77.0,2.71,3.02,,47.59359,-54.27349
2018-07-05 10:00:00+00:00,59.0,61.0,2.71,3.05,,47.59359,-54.27349
2018-07-05 10:10:00+00:00,48.0,50.0,2.81,3.01,,47.59359,-54.27349
2018-07-05 10:20:00+00:00,41.0,46.0,2.63,2.94,,47.59359,-54.27349
2018-07-05 10:30:00+00:00,42.0,42.0,2.79,3.16,,47.59359,-54.27349
2018-07-05 10:40:00+00:00,52.0,52.0,2.8,3.33,,47.59359,-54.27349
2018-07-05 10:50:00+00:00,53.0,54.0,2.58,2.73,,47.59359,-54.27349
2018-07-05 11:00:00+00:00,54.0,52.0,2.13,2.46,,47.59359,-54.27349
2018-07-05 11:10:00+00:00,46.0,47.0,2.47,2.7,,47.59359,-54.27349
2018-07-05 11:20:00+00:00,47.0,49.0,3.0,3.15,,47.59359,-54.27349
2018-07-05 11:30:00+00:00,53.0,59.0,2.96,3.46,,47.59359,-54.27349
2018-07-05 11:40:00+00:00,54.0,53.0,3.14,3.3,,47.59359,-54.27349
2018-07-05 11:50:00+00:00,61.0,64.0,2.82,3.15,,47.59359,-54.27349
2018-07-05 12:00:00+00:00,48.0,47.0,2.4,2.59,,47.59359,-54.27349
2018-07-05 12:10:00+00:00,41.0,44.0,2.16,2.5,,47.59359,-54.27349
2018-07-05 12:20:00+00:00,42.0,44.0,1.79,2.12,,47.59359,-54.27349
2018-07-05 12:30:00+00:00,38.0,47.0,1.19,1.48,,47.59359,-54.27349
2018-07-05 12:40:00+00:00,59.0,55.0,1.0,1.19,,47.59359,-54.27349
2018-07-05 12:50:00+00:00,35.0,50.0,0.34,0.81,,47.59359,-54.27349
2018-07-05 13:00:00+00:00,35.0,40.0,0.83,0.95,,47.59359,-54.27349
2018-07-05 13:10:00+00:00,126.0,137.0,0.28,0.56,,47.59359,-54.27349
2018-07-05 13:20:00+00:00,295.0,335.0,0.34,0.77,,47.59359,-54.27349
2018-07-05 13:30:00+00:00,318.0,318.0,1.16,1.28,,47.59359,-54.27349
2018-07-05 13:40:00+00:00,341.0,345.0,1.1,1.18,,47.59359,-54.27349
2018-07-05 13:50:00+00:00,331.0,326.0,1.01,1.2,,47.59359,-54.27349
2018-07-05 14:00:00+00:00,325.0,325.0,1.2,1.4,,47.59359,-54.27349
2018-07-05 14:10:00+00:00,286.0,285.0,0.66,0.75,,47.59359,-54.27349
2018-07-05 14:20:00+00:00,246.0,230.0,0.42,0.89,,47.59359,-54.27349
2018-07-05 14:30:00+00:00,198.0,198.0,2.82,2.94,,47.59359,-54.27349
2018-07-05 14:40:00+00:00,199.0,201.0,2.95,3.13,,47.59359,-54.27349
2018-07-05 14:50:00+00:00,212.0,216.0,3.79,4.02,,47.59359,-54.27349
2018-07-05 15:00:00+00:00,206.0,206.0,3.72,4.11,,47.59359,-54.27349
2018-07-05 15:10:00+00:00,199.0,201.0,4.78,5.04,,47.59359,-54.27349
2018-07-05 15:20:00+00:00,191.0,195.0,4.51,4.81,,47.59359,-54.27349
2018-07-05 15:30:00+00:00,204.0,200.0,5.66,5.99,,47.59359,-54.27349
2018-07-05 15:40:00+00:00,214.0,216.0,4.9,5.88,,47.59359,-54.27349
2018-07-05 15:50:00+00:00,218.0,223.0,6.83,7.41,,47.59359,-54.27349
2018-07-05 16:00:00+00:00,206.0,208.0,7.37,7.84,,47.59359,-54.27349
2018-07-05 16:10:00+00:00,203.0,202.0,6.81,7.77,,47.59359,-54.27349
2018-07-05 16:20:00+00:00,215.0,217.0,8.8,10.03,,47.59359,-54.27349
2018-07-05 16:30:00+00:00,216.0,217.0,8.92,9.79,,47.59359,-54.27349
2018-07-05 16:40:00+00:00,222.0,224.0,10.31,11.85,,47.59359,-54.27349
2018-07-05 16:50:00+00:00,223.0,219.0,11.73,12.71,,47.59359,-54.27349
2018-07-05 17:00:00+00:00,224.0,225.0,11.46,12.47,,47.59359,-54.27349
2018-07-05 17:10:00+00:00,224.0,227.0,10.95,11.99,,47.59359,-54.27349
2018-07-05 17:20:00+00:00,223.0,227.0,10.09,11.29,,47.59359,-54.27349
2018-07-05 17:30:00+00:00,220.0,221.0,9.5,10.89,,47.59359,-54.27349
2018-07-05 17:40:00+00:00,220.0,226.0,9.46,10.63,,47.59359,-54.27349
2018-07-05 17:50:00+00:00,218.0,219.0,9.91,11.21,,47.59359,-54.27349
2018-07-05 18:00:00+00:00,220.0,220.0,10.56,11.92,,47.59359,-54.27349
2018-07-05 18:10:00+00:00,223.0,229.0,10.67,12.11,,47.59359,-54.27349
2018-07-05 18:20:00+00:00,228.0,230.0,12.36,14.26,,47.59359,-54.27349
2018-07-05 18:30:00+00:00,224.0,230.0,12.32,14.43,,47.59359,-54.27349
2018-07-05 18:40:00+00:00,226.0,231.0,12.27,13.25,,47.59359,-54.27349
2018-07-05 18:50:00+00:00,231.0,236.0,12.62,14.34,,47.59359,-54.27349
2018-07-05 19:00:00+00:00,227.0,227.0,13.48,15.66,,47.59359,-54.27349
2018-07-05 19:10:00+00:00,223.0,227.0,10.65,11.92,,47.59359,-54.27349
2018-07-05 19:20:00+00:00,227.0,226.0,11.56,12.88,,47.59359,-54.27349
2018-07-05 19:30:00+00:00,230.0,229.0,11.32,12.63,,47.59359,-54.27349
2018-07-05 19:40:00+00:00,228.0,227.0,11.22,12.23,,47.59359,-54.27349
2018-07-05 19:50:00+00:00,229.0,231.0,10.17,11.51,,47.59359,-54.27349
2018-07-05 20:00:00+00:00,231.0,232.0,9.04,10.41,,47.59359,-54.27349
2018-07-05 20:10:00+00:00,233.0,232.0,10.34,11.7,,47.59359,-54.27349
2018-07-05 20:20:00+00:00,228.0,229.0,10.31,11.72,,47.59359,-54.27349
2018-07-05 20:30:00+00:00,232.0,233.0,10.63,12.83,,47.59359,-54.27349
2018-07-05 20:40:00+00:00,229.0,224.0,9.66,11.12,,47.59359,-54.27349
2018-07-05 20:50:00+00:00,228.0,228.0,9.9,10.97,,47.59359,-54.27349
2018-07-05 21:00:00+00:00,228.0,231.0,9.55,10.92,,47.59359,-54.27349
2018-07-05 21:10:00+00:00,226.0,220.0,10.87,13.42,,47.59359,-54.27349
2018-07-05 21:20:00+00:00,220.0,223.0,10.81,12.63,,47.59359,-54.27349
2018-07-05 21:30:00+00:00,226.0,223.0,11.38,13.05,,47.59359,-54.27349
2018-07-05 21:40:00+00:00,231.0,232.0,12.38,14.18,,47.59359,-54.27349
2018-07-05 21:50:00+00:00,226.0,226.0,11.4,12.97,,47.59359,-54.27349
2018-07-05 22:00:00+00:00,223.0,220.0,10.68,11.74,,47.59359,-54.27349
2018-07-05 22:10:00+00:00,226.0,226.0,11.64,12.67,,47.59359,-54.27349
2018-07-05 22:20:00+00:00,228.0,228.0,10.82,12.35,,47.59359,-54.27349
2018-07-05 22:30:00+00:00,235.0,232.0,5.79,7.11,,47.59359,-54.27349
2018-07-05 22:40:00+00:00,204.0,207.0,6.52,7.18,,47.59359,-54.27349
2018-07-05 22:50:00+00:00,209.0,208.0,6.9,7.65,,47.59359,-54.27349
2018-07-05 23:00:00+00:00,198.0,200.0,5.23,6.02,,47.59359,-54.27349
2018-07-05 23:10:00+00:00,208.0,210.0,6.6,7.17,,47.59359,-54.27349
2018-07-05 23:20:00+00:00,212.0,211.0,7.22,7.79,,47.59359,-54.27349
2018-07-05 23:30:00+00:00,216.0,218.0,6.2,6.81,,47.59359,-54.27349
2018-07-05 23:40:00+00:00,218.0,220.0,7.32,7.87,,47.59359,-54.27349
2018-07-05 23:50:00+00:00,219.0,221.0,7.34,8.5,,47.59359,-54.27349
